Location: Ajisawe
(8.4333°N, 4.3833°E)
Time: 21:31:50
(UTC+00:00)

Vanguard 2 Rocket - Pass Details

Date: 19 April 2021
Orbit: 554 x 3326 km, 32.9° (Epoch: 16 May)

Event Time Altitude Azimuth Distance (km) Brightness Sun altitude
Rises 17:58:38 0° 306° (NW) 7,248 12.9 -2.5°
Reaches altitude 10° 18:04:35 10° 314° (NW) 6,040 12.1 -3.9°
Maximum altitude 18:20:27 37° 15° (NNE) 3,295 9.7 -7.7°
Drops below altitude 10° 18:30:42 10° 80° (E) 3,969 9.6 -10.2°
Enters shadow 18:31:09 - 81° (E) 4,059 9.6 -10.3°
Sets 18:33:39 0° 88° (E) 4,616 - -10.9°
